| time (UTC) | temp F | wind direction | speed MPH | gust MPH | rain 1hr in | rain 24hr in | rain mn in | humidity % | barometer mb |
| 20260903063106 | 46 | 206 | 2.0 | 4.0 | 0.00 | 0.15 | 0.15 | 98 | 1010.8 |
| 20260903061530 | 46 | 177 | 1.0 | 4.0 | 0.00 | 0.15 | 0.15 | 98 | 1011.0 |
| 20260903060144 | 47 | 204 | 0.0 | 3.0 | 0.00 | 0.15 | 0.15 | 97 | 1011.0 |
| 20260903054531 | 47 | 163 | 2.0 | 5.0 | 0.00 | 0.15 | 0.15 | 97 | 1011.0 |
| 20260903053105 | 48 | 68 | 0.0 | 3.0 | 0.00 | 0.15 | 0.15 | 97 | 1011.0 |
| 20260903050106 | 50 | 106 | 3.0 | 5.0 | 0.00 | 0.15 | 0.15 | 96 | 1010.7 |
| 20260903044530 | 50 | 170 | 4.0 | 8.0 | 0.00 | 0.15 | 0.15 | 96 | 1010.5 |
| 20260903041526 | 51 | 168 | 6.0 | 8.0 | 0.01 | 0.15 | 0.15 | 97 | 1010.2 |
| 20260903040105 | 51 | 173 | 5.0 | 10.0 | 0.01 | 0.15 | 0.15 | 97 | 1010.0 |
| 20260903034530 | 51 | 177 | 6.0 | 9.0 | 0.03 | 0.15 | 0.14 | 97 | 1010.0 |
| 20260903033031 | 52 | 180 | 6.0 | 9.0 | 0.05 | 0.14 | 0.14 | 97 | 1009.9 |
| 20260903031531 | 53 | 179 | 5.0 | 9.0 | 0.08 | 0.14 | 0.14 | 97 | 1009.9 |
| 20260903030031 | 54 | 172 | 5.0 | 9.0 | 0.11 | 0.14 | 0.12 | 98 | 1009.6 |
| 20260903024531 | 54 | 158 | 5.0 | 8.0 | 0.10 | 0.12 | 0.09 | 98 | 1009.6 |
| 20260903020106 | 56 | 244 | 3.0 | 7.0 | 0.02 | 0.03 | 0.02 | 98 | 1009.2 |
| 20260903014645 | 56 | 354 | 0.0 | 3.0 | 0.01 | 0.02 | 0.02 | 98 | 1008.8 |
| 20260903013027 | 55 | 22 | 0.0 | 3.0 | 0.02 | 0.02 | 0.02 | 98 | 1008.9 |
| 20260903011532 | 56 | 22 | 1.0 | 4.0 | 0.02 | 0.02 | 0.01 | 97 | 1009.0 |
| 20260903004527 | 56 | 290 | 3.0 | 7.0 | 0.01 | 0.01 | 0.00 | 97 | 1009.1 |
| 20260903001529 | 56 | 299 | 1.0 | 4.0 | 0.00 | 0.00 | 0.00 | 97 | 1009.1 |
| 20260903000147 | 56 | 14 | 3.0 | 6.0 | 0.00 | 0.00 | 0.00 | 97 | 1009.0 |
| 20260902234533 | 56 | 22 | 3.0 | 5.0 | 0.00 | 0.00 | 0.00 | 97 | 1009.0 |
| 20260902233031 | 56 | 344 | 2.0 | 4.0 | 0.00 | 0.00 | 0.00 | 97 | 1009.1 |
| 20260902231530 | 56 | 302 | 3.0 | 5.0 | 0.00 | 0.00 | 0.00 | 96 | 1009.3 |
| 20260902230107 | 56 | 285 | 2.0 | 4.0 | 0.00 | 0.00 | 0.00 | 96 | 1009.3 |
| 20260902224532 | 56 | 297 | 3.0 | 7.0 | 0.00 | 0.00 | 0.00 | 96 | 1009.1 |
| 20260902223030 | 56 | 300 | 2.0 | 5.0 | 0.00 | 0.00 | 0.00 | 95 | 1009.2 |
| 20260902221604 | 56 | 281 | 3.0 | 5.0 | 0.00 | 0.00 | 0.00 | 95 | 1009.1 |
| 20260902220031 | 56 | 272 | 2.0 | 7.0 | 0.00 | 0.00 | 0.00 | 94 | 1009.0 |
| 20260902214533 | 56 | 286 | 4.0 | 7.0 | 0.00 | 0.00 | 0.00 | 93 | 1008.9 |
| 20260902213105 | 56 | 257 | 3.0 | 5.0 | 0.00 | 0.00 | 0.00 | 93 | 1008.9 |
| 20260902211530 | 56 | 351 | 2.0 | 7.0 | 0.00 | 0.00 | 0.00 | 93 | 1008.9 |
| 20260902210104 | 56 | 14 | 4.0 | 7.0 | 0.00 | 0.00 | 0.00 | 92 | 1009.0 |
| 20260902204529 | 56 | 28 | 4.0 | 7.0 | 0.00 | 0.00 | 0.00 | 90 | 1009.1 |
| 20260902203032 | 57 | 13 | 4.0 | 8.0 | 0.00 | 0.00 | 0.00 | 86 | 1009.2 |
| 20260902201530 | 58 | 329 | 2.0 | 8.0 | 0.00 | 0.00 | 0.00 | 83 | 1009.3 |
| 20260902194530 | 59 | 11 | 6.0 | 8.0 | 0.00 | 0.00 | 0.00 | 79 | 1009.1 |
| 20260902193103 | 60 | 273 | 2.0 | 7.0 | 0.00 | 0.00 | 0.00 | 74 | 1009.1 |
| 20260902191528 | 60 | 249 | 2.0 | 6.0 | 0.00 | 0.00 | 0.00 | 73 | 1009.1 |
| 20260902190030 | 61 | 238 | 2.0 | 5.0 | 0.00 | 0.00 | 0.00 | 70 | 1009.1 |
| 20260902183031 | 61 | 278 | 2.0 | 5.0 | 0.00 | 0.00 | 0.00 | 70 | 1009.1 |
| 20260902181527 | 60 | 294 | 4.0 | 7.0 | 0.00 | 0.00 | 0.00 | 72 | 1009.0 |
| 20260902180030 | 60 | 285 | 4.0 | 8.0 | 0.00 | 0.00 | 0.00 | 72 | 1009.1 |
| 20260902174531 | 60 | 273 | 4.0 | 9.0 | 0.00 | 0.00 | 0.00 | 72 | 1009.1 |
| 20260902171529 | 60 | 292 | 4.0 | 9.0 | 0.00 | 0.00 | 0.00 | 72 | 1009.2 |
| 20260902170145 | 60 | 300 | 5.0 | 8.0 | 0.00 | 0.00 | 0.00 | 72 | 1009.4 |
| 20260902164720 | 0 | 0 | 0.0 | 0.0 | 0.00 | 0.00 | 0.00 | 100 | |
| 20260902161602 | 57 | 360 | 4.0 | 7.0 | 0.00 | 0.00 | 0.00 | 79 | 1010.0 |
| 20260902160029 | 57 | 351 | 4.0 | 9.0 | 0.00 | 0.00 | 0.00 | 80 | 1010.1 |
| 20260902154529 | 56 | 352 | 6.0 | 10.0 | 0.00 | 0.00 | 0.00 | 80 | 1010.2 |
| 20260902153029 | 56 | 5 | 6.0 | 11.0 | 0.00 | 0.00 | 0.00 | 80 | 1010.3 |
| 20260902151530 | 55 | 18 | 6.0 | 10.0 | 0.00 | 0.00 | 0.00 | 81 | 1010.3 |
| 20260902150029 | 55 | 23 | 5.0 | 9.0 | 0.00 | 0.00 | 0.00 | 81 | 1010.5 |
| 20260902144608 | 55 | 30 | 4.0 | 8.0 | 0.00 | 0.00 | 0.00 | 81 | 1010.6 |
| 20260902143028 | 54 | 22 | 5.0 | 8.0 | 0.00 | 0.00 | 0.00 | 81 | 1010.7 |
| 20260902140030 | 49 | 19 | 2.0 | 5.0 | 0.00 | 0.00 | 0.00 | 84 | 1010.8 |
| 20260902131605 | 49 | 60 | 2.0 | 4.0 | 0.00 | 0.00 | 0.00 | 83 | 1011.0 |
| 20260902130032 | 50 | 194 | 1.0 | 5.0 | 0.00 | 0.00 | 0.00 | 81 | 1011.0 |
| 20260902124532 | 52 | 65 | 3.0 | 7.0 | 0.00 | 0.00 | 0.00 | 79 | 1011.0 |
| 20260902123032 | 53 | 56 | 4.0 | 7.0 | 0.00 | 0.00 | 0.00 | 80 | 1011.0 |
| 20260902121531 | 53 | 55 | 5.0 | 8.0 | 0.00 | 0.00 | 0.00 | 79 | 1011.1 |
| 20260902113034 | 57 | 311 | 2.0 | 8.0 | 0.00 | 0.00 | 0.00 | 67 | 1011.3 |
| 20260902103108 | 58 | 247 | 9.0 | 17.0 | 0.00 | 0.00 | 0.00 | 67 | 1011.6 |
| 20260902101603 | 58 | 238 | 9.0 | 18.0 | 0.00 | 0.00 | 0.00 | 69 | 1011.5 |
| 20260902100032 | 58 | 236 | 9.0 | 18.0 | 0.00 | 0.00 | 0.00 | 69 | 1011.6 |
| 20260902094607 | 58 | 231 | 9.0 | 15.0 | 0.00 | 0.00 | 0.00 | 69 | 1011.7 |
| 20260902093031 | 58 | 228 | 9.0 | 15.0 | 0.00 | 0.00 | 0.00 | 69 | 1011.9 |
| 20260902091531 | 58 | 227 | 9.0 | 16.0 | 0.00 | 0.00 | 0.00 | 69 | 1012.0 |
| 20260902090035 | 58 | 227 | 8.0 | 14.0 | 0.00 | 0.00 | 0.00 | 70 | 1011.9 |
| 20260902084530 | 58 | 237 | 8.0 | 14.0 | 0.00 | 0.00 | 0.00 | 69 | 1011.9 |
| 20260902083034 | 58 | 225 | 11.0 | 21.0 | 0.00 | 0.00 | 0.00 | 69 | 1011.9 |
| 20260902074529 | 58 | 229 | 9.0 | 18.0 | 0.00 | 0.00 | 0.00 | 69 | 1012.1 |
| 20260902073106 | 59 | 228 | 10.0 | 18.0 | 0.00 | 0.00 | 0.00 | 69 | 1012.2 |